Location: Mainz-Finthen
(49.9906°N, 8.1713°E)
Time: 11:03:53
(UTC+00:00)

Tiangong - Visible Passes

Search period start: 27 September 2021 00:00
Search period end: 07 October 2021 00:00
Orbit: 382 x 385 km, 41.5° (Epoch: 26 September)

Date Brightness Start Highest point End Pass type
(mag) Time Alt. Az. Time Alt. Az. Time Alt. Az.
27 Sep 3.8 04:37:51 10° S 04:39:00 11° SSE 04:40:07 10° SE visible
29 Sep 3.5 04:13:50 10° SSW 04:15:39 14° SSE 04:17:29 10° SE visible
30 Sep 3.9 03:16:35 11° SSE 03:16:35 11° SSE 03:17:06 10° SE visible
30 Sep 3.2 04:49:50 10° SW 04:52:03 18° S 04:54:17 10° SE visible
01 Oct 3.1 03:51:43 16° S 03:52:19 17° S 03:54:26 10° SE visible
02 Oct 3.1 04:26:51 12° SW 04:28:42 17° S 04:30:55 10° SE visible
03 Oct 3.4 03:29:47 16° SSE 03:29:47 16° SSE 03:31:11 10° SE visible
04 Oct 3.1 04:04:56 15° SSW 04:05:19 16° S 04:07:19 10° SSE visible
06 Oct 3.8 03:43:11 11° S 03:43:11 11° S 03:43:25 10° SSE visible
